Christchurch, New Zealand

8:11 AM NZDT on December 08, 2016 (GMT +1300)
Christchurch

Weather History for 93780 - July, 2013

Change the Weather History Date:

Friday, July 5, 2013

  Actual Average Record
Temperature  
Mean Temperature 54 °F -  
Max Temperature 66 °F - - ()
Min Temperature 42 °F - - ()
Degree Days  
Heating Degree Days 11    
Growing Degree Days 4 (Base 50)    
Moisture  
Dew Point 37 °F    
Average Humidity 50    
Maximum Humidity 93    
Minimum Humidity 34    
Precipitation  
Precipitation 0.00 in - - ()
Sea Level Pressure  
Sea Level Pressure 29.71 in    
Wind  
Wind Speed 10 mph ()    
Max Wind Speed 21 mph    
Max Gust Speed 34 mph    
T = Trace of Precipitation, MM = Missing Value Source: Averaged Metar Reports

Daily Weather History Graph

Daily Weather History Graph

Search for Another Location

Airport or City:

Trip Planner

Search our weather history database for the weather conditions in past years. The results will help you decide how hot, cold, wet, or windy it might be!

Date:

Astronomy

Jul. 05, 2013 Rise Set
Actual Time 8:02 AM NZST 5:05 PM NZST
Civil Twilight 7:30 AM NZST 5:38 PM NZST
Nautical Twilight 6:54 AM NZST 6:14 PM NZST
Astronomical Twilight 6:19 AM NZST 6:49 PM NZST
Moon 5:05 AM NZST (7/5) 2:45 PM NZST (7/5)
Length of Visible Light 10h 07m
Length of Day
9h 03m
Waning Crescent, 10% of the Moon is Illuminated
Jul 5
Waning Crescent
Jul 8
New
Jul 16
First Quarter
Jul 23
Full
Jul 30
Last Quarter

Hourly Weather History & Observations

Time (NZST) Temp. Windchill Dew Point Humidity Pressure Visibility Wind Dir Wind Speed Gust Speed Precip Events Conditions
12:00 AM 44.6 °F 40.7 °F 42.8 °F 93% 29.86 in - East 6.9 mph - N/A   Clear
1:00 AM 42.8 °F 38.0 °F 41.0 °F 93% 29.86 in - NE 8.1 mph - N/A   Clear
2:00 AM 42.8 °F 39.3 °F 41.0 °F 93% 29.83 in - NE 5.8 mph - N/A   Clear
3:00 AM 57.2 °F - 35.6 °F 44% 29.80 in - North 9.2 mph 20.7 mph N/A   Clear
4:00 AM 55.4 °F - 32.0 °F 41% 29.77 in - NW 18.4 mph - N/A   Clear
5:00 AM 55.4 °F - 32.0 °F 41% 29.77 in - NW 17.3 mph - N/A   Clear
6:00 AM 51.8 °F - 30.2 °F 44% 29.74 in - North 8.1 mph - N/A   Clear
7:00 AM 48.2 °F - 32.0 °F 54% 29.74 in - ENE 9.2 mph - N/A   Clear
8:00 AM 48.2 °F - 35.6 °F 62% 29.74 in - NE 13.8 mph - N/A   Clear
9:00 AM 50.0 °F - 35.6 °F 58% 29.74 in - NNE 11.5 mph - N/A   Clear
10:00 AM 55.4 °F - 37.4 °F 51% 29.71 in - NE 11.5 mph - N/A   Clear
11:00 AM 60.8 °F - 37.4 °F 42% 29.71 in - North 10.4 mph - N/A   Clear
12:00 PM 64.4 °F - 35.6 °F 34% 29.71 in - NNW 6.9 mph - N/A   Clear
1:00 PM 64.4 °F - 37.4 °F 37% 29.68 in - NNE 17.3 mph - N/A   Clear
2:00 PM 66.2 °F - 37.4 °F 35% 29.65 in - North 6.9 mph - N/A   Clear
3:00 PM 66.2 °F - 41.0 °F 40% 29.65 in - ENE 10.4 mph - N/A   Clear
4:00 PM 62.6 °F - 41.0 °F 45% 29.65 in - NNE 9.2 mph - N/A   Clear
5:00 PM 60.8 °F - 35.6 °F 39% 29.65 in - NNE 11.5 mph - N/A   Clear
6:00 PM 59.0 °F - 37.4 °F 45% 29.65 in - ENE 13.8 mph - N/A   Clear
7:00 PM 57.2 °F - 37.4 °F 48% 29.65 in - North 11.5 mph - N/A   Clear
8:00 PM 59.0 °F - 35.6 °F 42% 29.62 in - NNW 17.3 mph - N/A   Clear
9:00 PM 60.8 °F - 35.6 °F 39% 29.62 in - NNW 20.7 mph - N/A   Clear
10:00 PM 57.2 °F - 35.6 °F 44% 29.62 in - North 12.7 mph - N/A   Clear
11:00 PM 60.8 °F - 33.8 °F 36% 29.56 in - NNW 19.6 mph 34.5 mph N/A   Clear